Hagerstown, MD

9:57 PM EDT on August 23, 2017 (GMT -0400)
Hagerstown Regional-Henson

Weather History for KHGR - October, 2011

Change the Weather History Date:

Friday, October 28, 2011

  Actual Average Record
Temperature  
Mean Temperature 41 °F 51 °F  
Max Temperature 48 °F 61 °F 81 °F (2014)
Min Temperature 34 °F 41 °F 33 °F (1999)
Degree Days  
Heating Degree Days 24 14  
Month to date heating degree days 264 284  
Since 1 July heating degree days 311 358  
Cooling Degree Days 0 0  
Month to date cooling degree days 0 9  
Year to date cooling degree days 1313 968  
Moisture  
Dew Point 30 °F    
Average Humidity 64    
Maximum Humidity 82    
Minimum Humidity 45    
Precipitation  
Precipitation 0.00 in 0.07 in 0.87 in (2006)
Month to date precipitation 2.70 2.65  
Year to date precipitation 39.77 32.95  
Sea Level Pressure  
Sea Level Pressure 30.22 in    
Wind  
Wind Speed 5 mph (NE)    
Max Wind Speed 13 mph    
Max Gust Speed 15 mph    
Visibility 10 miles    
Events Rain    
T = Trace of Precipitation, MM = Missing Value Source: NWS Daily Summary

Daily Weather History Graph

Daily Weather History Graph

Search for Another Location

Airport or City:

Trip Planner

Search our weather history database for the weather conditions in past years. The results will help you decide how hot, cold, wet, or windy it might be!

Date:

Astronomy

Oct. 28, 2011 Rise Set
Actual Time 7:34 AM EDT 6:14 PM EDT
Civil Twilight 7:06 AM EDT 6:41 PM EDT
Nautical Twilight 6:35 AM EDT 7:13 PM EDT
Astronomical Twilight 6:03 AM EDT 7:44 PM EDT
Moon 9:47 AM EDT (10/28) 7:35 PM EDT (10/28)
Length of Visible Light 11h 34m
Length of Day
10h 39m
Waxing Crescent, 5% of the Moon is Illuminated
Oct 28
Waxing Crescent
Nov 2
First Quarter
Nov 10
Full
Nov 18
Last Quarter
Nov 25
New

Hourly Weather History & Observations

Time (EDT) Temp. Windchill Dew Point Humidity Pressure Visibility Wind Dir Wind Speed Gust Speed Precip Events Conditions
12:53 AM 39.9 °F 32.9 °F 30.0 °F 68% 30.10 in 10.0 mi NNW 11.5 mph - N/A   Clear
1:53 AM 37.9 °F 35.5 °F 28.9 °F 70% 30.14 in 10.0 mi ENE 3.5 mph - N/A   Clear
2:53 AM 36.0 °F 32.1 °F 28.9 °F 76% 30.18 in 10.0 mi NNW 4.6 mph - N/A   Clear
4:53 AM 36.0 °F 29.6 °F 28.9 °F 76% 30.19 in 10.0 mi North 8.1 mph - N/A   Clear
5:53 AM 35.1 °F 32.2 °F 28.9 °F 78% 30.21 in 10.0 mi North 3.5 mph - N/A   Clear
6:53 AM 34.0 °F 28.0 °F 28.0 °F 79% 30.22 in 10.0 mi North 6.9 mph - N/A   Clear
7:53 AM 34.0 °F 28.8 °F 28.0 °F 79% 30.24 in 10.0 mi NNW 5.8 mph - N/A   Clear
8:53 AM 37.0 °F 32.4 °F 28.9 °F 73% 30.26 in 10.0 mi NNE 5.8 mph - N/A   Clear
9:53 AM 41.0 °F 38.0 °F 28.9 °F 62% 30.26 in 10.0 mi NNE 4.6 mph - N/A   Clear
10:53 AM 43.0 °F - 28.0 °F 56% 30.28 in 10.0 mi Calm Calm - N/A   Clear
11:53 AM 45.0 °F 43.5 °F 27.0 °F 49% 30.27 in 10.0 mi Variable 3.5 mph - N/A   Clear
12:53 PM 46.9 °F - 28.0 °F 48% 30.27 in 10.0 mi ESE 3.5 mph - N/A   Clear
1:53 PM 46.9 °F - 30.0 °F 52% 30.24 in 10.0 mi North 8.1 mph - N/A   Clear
3:53 PM 46.9 °F - 28.0 °F 48% 30.22 in 10.0 mi South 3.5 mph - N/A   Overcast
4:53 PM 46.0 °F 43.9 °F 26.1 °F 46% 30.23 in 10.0 mi East 4.6 mph - N/A   Overcast
5:53 PM 45.0 °F 42.6 °F 28.0 °F 52% 30.22 in 10.0 mi ESE 4.6 mph - N/A   Overcast
6:53 PM 45.0 °F - 28.9 °F 53% 30.24 in 10.0 mi Calm Calm - N/A   Overcast
7:53 PM 42.1 °F 36.1 °F 30.9 °F 65% 30.26 in 10.0 mi South 10.4 mph - N/A   Overcast
9:20 PM 39.2 °F 35.9 °F 33.8 °F 81% 30.22 in 10.0 mi SE 4.6 mph - 0.00 in Rain Light Rain
9:53 PM 39.0 °F 36.8 °F 34.0 °F 82% 30.26 in 10.0 mi SE 3.5 mph - 0.01 in Rain Light Rain
10:50 PM 37.4 °F - 33.8 °F 87% 30.21 in 9.0 mi Calm Calm - 0.01 in Rain Light Rain
10:53 PM 37.9 °F - 34.0 °F 86% 30.25 in 9.0 mi Calm Calm - 0.01 in Rain Light Rain
11:06 PM 37.4 °F 34.9 °F 33.8 °F 87% 30.20 in 9.0 mi East 3.5 mph - 0.01 in Rain Light Rain
11:53 PM 37.9 °F 34.4 °F 34.0 °F 86% 30.22 in 10.0 mi NE 4.6 mph - 0.02 in Rain Light Rain